Miscellaneous Local Product
Issued by NWS North Platte, NE

Home | Current Version | Previous Version | Text Only | Print | Product List | Glossary Off
Versions: 1 2 3 4 5 6 7 8 9 10 11 12 13 14 15 16 17 18 19 20 21 22 23 24 25 26 27 28 29 30 31 32 33 34 35 36 37 38 39 40 41 42 43 44 45 46 47 48 49 50

429
AXUS43 KLBF 281910
MISLBF


WESTERN AND NORTH CENTRAL NEBRASKA HOURLY WEATHER ROUNDUP
NATIONAL WEATHER SERVICE NORTH PLATTE NE
200 PM CDT SUN AUG 28 2016

NOTE: "FAIR" INDICATES FEW OR NO CLOUDS BELOW 12,000 FEET WITH NO
SIGNIFICANT WEATHER AND/OR OBSTRUCTIONS TO VISIBILITY.

NOTE: STATIONS NOT REPORTING VARIABLES SUCH AS SKY/WEATHER OR
PRESSURE ARE PROVIDED BY RAWS AND APRS NETWORKS AND ARE NOT UNDER
NATIONAL WEATHER SERVICE QUALITY CONTROL.

...OBSERVATIONS IN AND NEAR THE EASTERN PANHANDLE OF NEBRASKA...

CITY           SKY/WX    TMP DP  RH WIND       PRES   REMARKS
PINE RIDGE     SUNNY     89  48  24 S8        30.01F
CHADRON        SUNNY     90  39  16 SE3       30.00F
ALLIANCE       SUNNY     88  49  25 S12       30.07F
SIDNEY         CLOUDY    86  52  30 SE6       30.12F
CRESCENT LAKE    N/A     87  60  39 S3          N/A
$$

...OBSERVATIONS IN NORTHERN NEBRASKA AND FAR SOUTHERN SOUTH DAKOTA...

CITY           SKY/WX    TMP DP  RH WIND       PRES   REMARKS
WINNER         FAIR      95  62  33 S20       29.97F HX  96
THEDFORD       MOSUNNY   88  58  35 S14G24    30.06F
AINSWORTH      SUNNY     90  63  41 S17       30.03S HX  90
O`NEILL        SUNNY     92  57  30 S14G28    30.04F HX  91
ORD            MOSUNNY   87  63  44 S13G21    30.05F
BROKEN BOW     SUNNY     87  62  43 S13G25    30.07F
VALENTINE NWR    N/A     89  61  39 S12G20      N/A
BUTTE            N/A     88  67  50 S12G21      N/A  HX  91
HALSEY           N/A     86  58  38 S9G16       N/A
EWING            N/A     90  67  46 S9G20       N/A  HX  93
$$

...OBSERVATIONS IN SOUTHWEST NEBRASKA AND FAR NORTHEAST COLORADO...

CITY           SKY/WX    TMP DP  RH WIND       PRES   REMARKS
WRAY           FAIR      88  50  27 SE10G16   30.10F
HOLYOKE        FAIR      88  52  29 S8G20     30.10S
IMPERIAL       SUNNY     86  56  35 S12G20    30.09F
OGALLALA       SUNNY     88  50  26 S8        30.07F
NORTH PLATTE   SUNNY     91  52  26 S12       30.06F
MCCOOK         CLOUDY    77  58  51 SE12      30.10S
LEXINGTON      MOSUNNY   84  63  50 SE10      30.09S
STAPLETON        N/A     89  63  41 CALM        N/A
GOTHENBURG       N/A     82  57  42 S7          N/A
CALLAWAY         N/A     82  66  58 S6          N/A
$$

...OBSERVATIONS IN CENTRAL LINCOLN COUNTY AREA...

CITY           SKY/WX    TMP DP  RH WIND       PRES   REMARKS
N.P. AIRPORT   SUNNY     91  52  26 S12       30.06F
N.P. DOWNTOWN    N/A     88  60  38 S3          N/A
N.P. SOUTHEAST   N/A     88  58  35 SW5G12      N/A
N.P. HILLCREST   N/A     87  57  35 S10         N/A
$$

...SOME OBSERVATIONS FROM AROUND THE REGION...

CITY           SKY/WX    TMP DP  RH WIND       PRES   REMARKS
DENVER         MOSUNNY   83  35  18 VRB5      30.17F
LARAMIE        SUNNY     76  25  15 VRB7      30.29F
CHEYENNE       SUNNY     84  32  15 VRB6      30.21F
SCOTTSBLUFF    SUNNY     87  42  20 MISG      30.08F
RAPID CITY     SUNNY     88  50  27 E8        29.99F
BISMARCK       SUNNY     82  65  56 SE6       29.90F
PIERRE         SUNNY     92  60  34 S14       29.89F HX  91
SIOUX FALLS    MOSUNNY   86  72  62 S16G25    30.05F HX  92
OMAHA          PTSUNNY   88  72  58 SE14      30.08F HX  94
GRAND ISLAND   MOSUNNY   89  62  40 SE10      30.08F
KANSAS CITY    MOSUNNY   87  69  54 S6        30.11F HX  91
WICHITA        MOSUNNY   89  70  53 S12       30.09F HX  94
OKLAHOMA CITY  MOSUNNY   90  66  45 SE7       30.08F HX  92
DALLAS         MOSUNNY   90  66  45 E8        30.04F HX  92
AMARILLO       CLOUDY    83  58  42 SW16      30.16S
DODGE CITY     CLOUDY    81  62  52 S9        30.12F
HAYS           CLOUDY    81  59  47 SW9       30.10F
GOODLAND       SUNNY     81  56  42 S12G18    30.12F
$$




USA.gov is the U.S. government's official web portal to all federal, state and local government web resources and services.